Wind_Speed
63 59 57 58 58 55 53 52 58 60 63 65 66 67 67 67 67 69 70 72 73 75 77 80 83 85 87 89 91 94 96 99 99 104 109 113 118 121 122 120 118 107 108
59 57 55 57 56 55 53 52 57 59 61 64 65 67 67 66 69 70 72 73 76 78 80 82 85 87 90 92 95 98 101 103 105 106 114 120 122 121 121 111 109 112 116
58 57 54 54 55 54 51 50 56 59 61 62 64 66 66 67 69 71 73 75 77 80 82 85 88 90 94 96 99 102 105 108 112 116 118 119 121 118 109 111 114 121 125
57 54 52 52 53 51 50 49 53 57 60 62 64 65 67 68 70 72 74 77 79 82 85 88 91 95 97 100 103 107 110 115 120 122 117 116 110 111 112 115 121 127 123
55 52 51 52 51 51 50 48 49 55 58 62 64 66 68 70 71 73 76 78 80 84 88 91 95 98 101 105 109 113 118 123 122 120 114 108 111 113 118 124 123 117 110
49 48 50 50 52 52 50 50 51 50 55 61 64 66 68 70 72 74 77 79 83 87 91 95 99 103 106 110 114 119 124 121 119 110 111 112 115 121 125 125 114 105 98
45 48 50 51 50 51 52 52 52 50 54 58 63 66 68 70 72 75 79 83 87 91 95 100 103 107 111 115 120 120 119 113 113 112 113 119 123 127 121 111 103 94 85
45 45 48 48 48 50 53 53 51 49 53 57 60 64 67 70 73 78 82 86 91 95 100 104 108 112 118 120 116 112 111 116 117 118 121 124 123 112 103 99 91 86 80
40 43 44 47 48 50 51 51 49 48 52 56 59 62 66 72 77 81 85 90 95 99 105 109 113 118 117 116 109 110 115 117 120 124 124 119 107 100 90 85 82 76 75
38 41 44 45 47 48 48 47 44 47 50 54 58 64 70 74 78 84 89 94 99 104 109 115 118 115 113 107 111 114 116 121 125 125 114 103 94 85 80 75 71 68 63
40 42 42 41 42 41 38 38 41 45 49 55 61 67 73 78 83 89 95 100 104 109 114 113 112 106 107 112 115 118 123 126 123 108 101 89 82 78 73 67 61 53 53
33 33 34 32 30 30 33 37 42 49 55 61 67 72 77 83 89 96 101 106 110 109 109 105 103 107 112 116 120 125 127 115 103 95 86 81 77 71 64 59 52 45 42
20 20 21 23 28 32 38 44 50 55 61 67 73 79 85 90 95 100 105 105 105 102 99 103 108 114 118 122 126 121 107 99 90 84 81 76 69 63 57 53 47 46 46
17 21 25 30 35 40 46 51 56 62 68 74 81 87 92 97 100 100 100 97 95 99 104 110 116 119 123 124 113 101 94 87 81 79 74 68 63 57 52 50 51 52 51
24 28 32 37 42 47 53 59 64 70 76 82 87 91 94 95 93 89 91 95 100 104 109 116 119 121 116 104 95 89 83 78 74 69 65 60 55 52 52 54 52 49 47
31 35 40 45 50 55 60 67 73 77 82 85 88 88 85 82 85 89 96 100 105 110 115 117 114 104 96 91 87 80 75 71 65 61 57 54 53 54 54 50 46 43 43
38 42 46 51 57 63 68 73 77 80 82 81 77 77 81 85 90 95 100 105 110 113 111 102 94 91 87 83 77 74 70 64 58 54 54 55 55 51 47 44 41 37 38
43 48 52 57 63 68 71 74 76 73 70 73 76 81 87 92 97 100 105 108 108 100 92 88 85 82 77 72 69 66 62 57 55 55 55 53 48 46 42 36 36 34 31
48 52 58 63 67 69 68 66 65 68 73 78 83 89 95 99 103 104 103 98 92 88 85 82 77 71 67 64 62 58 55 55 57 57 54 50 45 40 33 33 32 27 23
52 57 61 63 61 60 60 64 69 74 80 85 90 94 97 101 100 98 93 90 87 82 77 71 66 63 60 58 55 52 54 56 54 50 47 44 39 34 29 28 26 21 16
54 59 59 56 57 60 65 70 75 81 87 92 95 98 97 92 89 88 85 82 79 72 65 60 58 57 53 51 49 52 53 50 48 45 41 38 33 28 25 22 19 12 9
58 59 55 57 61 66 72 77 83 88 93 96 98 94 88 85 84 80 78 73 65 59 56 54 52 49 46 47 52 52 48 47 45 40 33 29 25 24 20 16 10 8 7
55 54 58 63 68 74 79 85 90 94 97 97 90 84 82 80 76 73 67 59 54 52 49 46 45 43 44 48 49 46 45 43 39 34 29 25 21 18 14 10 9 9 7
55 59 65 71 76 81 86 91 95 96 96 85 81 80 77 72 67 60 54 49 47 45 42 39 39 39 44 46 43 42 41 38 34 30 25 21 18 16 13 12 10 11 12
61 67 73 78 83 88 92 95 96 93 83 77 78 74 68 61 56 50 46 43 41 39 35 34 35 39 42 41 40 39 36 33 29 24 22 21 19 17 15 12 13 15 16
69 74 79 84 89 92 94 96 91 83 76 74 69 64 58 52 46 42 40 37 35 32 30 31 35 38 40 39 38 36 32 30 26 24 23 21 19 17 17 16 17 18 17
Wind_Direction
245 249 254 259 264 267 269 261 250 249 251 251 252 254 258 262 266 269 271 274 276 279 281 283 285 287 288 290 292 292 294 295 296 295 296 296 296 296 296 295 296 296 297
241 245 249 256 262 267 271 263 251 250 253 253 254 255 259 263 266 269 273 276 278 281 283 285 287 289 290 292 294 295 296 297 296 297 298 298 298 297 297 298 299 300 299
237 244 247 254 261 266 269 266 254 253 254 255 257 258 262 264 268 272 276 279 281 283 285 287 289 291 292 294 295 297 297 298 300 299 300 299 299 299 300 301 301 300 299
235 242 247 254 259 265 266 268 260 256 258 258 259 261 264 267 270 274 278 281 283 285 287 288 290 292 294 296 297 298 300 300 300 300 300 300 299 301 302 303 301 302 302
234 240 246 254 258 263 266 269 268 261 261 262 261 263 265 268 272 276 280 284 286 287 289 290 292 294 297 298 299 301 301 301 301 300 299 300 302 304 304 303 304 303 301
232 240 248 253 256 259 266 271 273 267 265 264 265 266 268 271 275 279 283 286 288 289 291 294 296 297 297 300 301 302 302 301 300 300 301 305 306 306 306 305 303 302 301
232 240 249 255 259 261 265 272 276 272 268 267 267 268 270 274 278 282 285 287 290 292 294 295 296 297 299 301 302 302 302 300 301 304 307 308 306 307 306 304 304 303 302
236 245 253 257 259 263 266 272 278 276 271 271 271 271 274 278 281 284 287 290 292 293 294 296 298 300 301 302 303 302 301 301 305 308 308 308 308 307 305 304 304 304 303
243 251 260 260 261 265 270 275 279 274 272 274 274 276 278 281 284 287 289 291 293 295 297 299 300 300 302 303 302 299 302 306 308 309 310 309 307 306 305 305 304 304 303
249 255 259 263 265 269 273 277 274 274 276 277 277 279 283 284 287 290 291 293 295 297 299 300 300 302 303 301 301 303 307 308 309 309 308 307 306 306 306 305 304 305 303
254 261 266 269 270 270 272 273 276 278 279 280 282 284 286 289 291 292 293 295 297 298 299 301 302 302 301 301 304 308 310 309 309 308 307 308 308 308 307 306 304 304 300
263 264 263 264 267 272 278 281 282 282 283 285 286 288 290 291 292 293 295 298 299 300 300 301 301 302 302 306 310 309 309 309 308 308 309 309 308 308 307 305 304 301 297
253 260 270 277 279 281 282 284 285 286 287 289 290 290 291 292 294 296 298 300 300 301 302 302 303 305 307 309 309 309 309 310 310 310 311 310 309 309 309 306 305 303 299
270 275 279 281 283 284 284 285 287 288 289 289 290 291 294 297 299 299 300 301 301 303 304 305 304 306 307 307 308 309 310 311 311 312 311 311 311 310 309 307 306 305 302
276 279 281 282 284 285 286 287 287 288 289 291 293 296 297 298 300 301 301 302 303 304 304 302 305 307 307 309 310 311 312 312 312 311 310 309 310 310 309 308 307 307 304
278 280 283 284 285 286 286 287 288 291 294 296 297 298 299 300 300 302 302 303 304 303 303 305 306 308 309 311 311 313 313 313 312 311 311 311 312 311 310 309 309 308 306
282 284 285 285 286 288 288 290 292 295 296 297 298 299 300 301 301 302 304 304 303 304 306 308 309 311 312 312 314 314 315 314 314 314 313 314 313 312 311 310 310 307 308
282 284 287 287 287 290 293 294 296 297 297 299 300 301 302 303 304 306 306 304 305 308 310 311 312 312 312 314 315 315 316 316 316 317 316 316 315 314 313 311 309 309 312
285 286 287 290 293 295 296 296 298 300 302 303 304 304 305 306 307 307 306 308 310 312 313 313 313 313 314 316 316 317 318 319 320 320 319 319 319 316 315 311 310 314 309
290 292 295 297 298 298 300 301 303 304 304 304 304 305 307 309 309 308 311 312 313 314 314 313 314 315 318 318 319 320 322 324 322 322 323 321 322 321 317 312 312 314 311
295 298 300 299 300 303 304 305 306 305 305 305 306 309 311 311 309 311 313 314 314 313 313 315 317 318 320 320 322 324 327 326 326 329 328 325 323 319 319 319 316 316 328
299 301 300 302 304 306 306 306 306 306 307 309 312 314 312 311 313 314 313 313 313 314 315 319 318 320 323 325 329 331 331 331 334 335 335 332 331 330 333 330 328 6 20
301 302 304 305 307 307 308 307 307 308 312 314 317 314 313 315 314 314 313 313 314 316 319 319 320 324 328 331 333 334 336 338 342 345 349 348 347 347 345 353 18 46 59
304 305 306 307 308 308 308 309 310 313 315 319 315 313 315 314 314 315 314 315 317 319 321 321 324 329 333 336 337 341 342 346 350 354 359 0 2 6 21 31 50 73 88
306 307 307 309 310 311 310 312 313 316 321 318 314 315 315 316 316 315 316 318 320 321 322 323 330 334 338 340 343 347 349 353 0 5 14 18 22 32 42 56 75 84 90
308 310 311 313 313 312 313 314 317 322 320 316 316 316 317 317 317 317 319 322 322 322 324 329 335 338 343 344 347 352 355 1 8 17 22 28 35 49 62 73 78 85 92
Height
10527 10534 10538 10540 10541 10542 10542 10544 10546 10548 10549 10550 10552 10552 10552 10553 10552 10549 10546 10542 10538 10533 10529 10523 10517 10511 10504 10497 10489 10480 10470 10460 10457 10442 10425 10411 10397 10381 10367 10354 10344 10330 10320
10517 10523 10527 10528 10530 10531 10533 10532 10535 10536 10537 10538 10539 10539 10540 10540 10538 10534 10531 10526 10521 10517 10512 10506 10499 10492 10484 10475 10466 10456 10445 10434 10424 10419 10398 10380 10361 10344 10333 10322 10309 10296 10284
10506 10512 10516 10519 10521 10521 10522 10522 10523 10524 10525 10526 10527 10527 10528 10526 10523 10519 10515 10510 10505 10500 10494 10487 10479 10471 10462 10453 10443 10431 10418 10406 10391 10381 10373 10350 10332 10311 10303 10291 10277 10260 10244
10496 10503 10506 10510 10511 10512 10512 10512 10512 10513 10514 10514 10515 10515 10514 10512 10508 10505 10500 10494 10489 10483 10475 10467 10459 10449 10440 10429 10418 10404 10391 10376 10360 10347 10336 10324 10303 10289 10276 10264 10246 10221 10204
10489 10493 10497 10500 10501 10501 10502 10502 10501 10502 10502 10503 10502 10502 10501 10498 10494 10490 10485 10479 10472 10464 10455 10447 10438 10428 10416 10403 10390 10376 10360 10345 10328 10315 10302 10291 10279 10264 10247 10224 10208 10190 10166
10480 10485 10490 10490 10490 10491 10493 10492 10491 10491 10491 10490 10490 10489 10486 10483 10480 10475 10469 10462 10454 10446 10436 10425 10415 10403 10391 10378 10363 10348 10331 10310 10295 10283 10274 10262 10248 10226 10210 10188 10172 10157 10143
10473 10476 10479 10480 10482 10484 10484 10483 10482 10480 10480 10479 10477 10475 10473 10469 10466 10460 10452 10444 10435 10425 10414 10403 10392 10379 10365 10352 10339 10321 10300 10278 10262 10256 10248 10227 10214 10191 10174 10152 10137 10126 10117
10466 10470 10472 10474 10474 10475 10475 10473 10471 10469 10468 10466 10464 10462 10460 10456 10451 10442 10434 10426 10416 10405 10393 10380 10367 10353 10339 10325 10310 10291 10270 10250 10239 10226 10213 10196 10179 10160 10143 10125 10111 10096 10087
10462 10465 10466 10466 10466 10466 10465 10463 10461 10458 10456 10455 10453 10450 10446 10441 10432 10426 10417 10407 10397 10384 10368 10354 10342 10328 10310 10294 10282 10263 10246 10228 10212 10195 10180 10163 10146 10131 10117 10102 10087 10078 10061
10456 10457 10457 10458 10457 10456 10454 10453 10450 10448 10447 10444 10441 10437 10431 10425 10417 10408 10398 10386 10375 10361 10346 10331 10315 10299 10284 10267 10252 10237 10223 10204 10185 10164 10148 10135 10121 10106 10093 10082 10069 10057 10045
10448 10449 10449 10449 10448 10446 10444 10443 10441 10439 10437 10434 10429 10423 10416 10408 10399 10388 10376 10364 10352 10339 10322 10305 10289 10272 10257 10240 10223 10210 10192 10174 10153 10136 10121 10107 10094 10083 10071 10059 10052 10045 10031
10441 10441 10441 10440 10439 10438 10436 10435 10433 10430 10426 10420 10414 10407 10399 10390 10380 10366 10352 10341 10328 10313 10296 10278 10264 10247 10228 10210 10196 10179 10161 10144 10127 10109 10095 10083 10071 10061 10051 10042 10035 10028 10021
10434 10434 10434 10434 10432 10431 10429 10426 10422 10418 10412 10405 10397 10389 10379 10369 10358 10347 10332 10316 10301 10285 10270 10254 10235 10217 10200 10184 10169 10153 10133 10117 10101 10085 10072 10061 10051 10041 10032 10023 10018 10012 10006
10429 10429 10428 10427 10425 10423 10420 10416 10410 10405 10397 10389 10379 10369 10358 10347 10336 10321 10306 10292 10277 10261 10244 10226 10207 10191 10177 10160 10143 10128 10110 10094 10079 10065 10051 10041 10031 10023 10017 10009 10001 9995 9988
10423 10422 10421 10419 10416 10413 10408 10403 10396 10388 10381 10371 10361 10350 10339 10326 10312 10297 10283 10270 10256 10241 10224 10202 10187 10169 10151 10134 10119 10104 10089 10075 10061 10049 10037 10026 10019 10010 10003 9994 9986 9979 9971
10417 10415 10413 10409 10405 10400 10394 10387 10380 10373 10362 10352 10341 10328 10316 10305 10293 10279 10263 10248 10234 10216 10196 10180 10162 10144 10128 10112 10096 10083 10071 10057 10045 10033 10023 10014 10005 9996 9987 9980 9972 9966 9958
10409 10406 10402 10397 10392 10386 10379 10372 10363 10352 10342 10331 10320 10309 10298 10287 10273 10259 10244 10227 10208 10188 10172 10155 10138 10121 10105 10090 10077 10064 10051 10040 10029 10019 10010 10000 9990 9982 9974 9967 9960 9955 9950
10399 10395 10390 10384 10377 10370 10363 10354 10345 10334 10324 10314 10305 10292 10276 10262 10249 10237 10220 10198 10180 10163 10148 10132 10117 10103 10088 10076 10063 10049 10038 10026 10016 10006 9996 9986 9977 9969 9963 9956 9950 9946 9943
10388 10382 10376 10370 10363 10355 10345 10336 10327 10317 10307 10295 10281 10267 10252 10237 10223 10207 10190 10173 10156 10141 10126 10111 10097 10084 10073 10062 10049 10038 10027 10015 10004 9992 9981 9973 9965 9958 9953 9946 9941 9939 9936
10376 10369 10363 10355 10346 10338 10330 10321 10311 10301 10288 10274 10261 10249 10235 10217 10198 10177 10162 10147 10132 10120 10107 10094 10082 10071 10061 10049 10039 10028 10016 10005 9992 9982 9972 9963 9956 9950 9944 9939 9935 9933 9931
10362 10355 10347 10340 10333 10324 10315 10305 10294 10281 10267 10253 10239 10226 10211 10194 10176 10159 10143 10129 10116 10103 10091 10081 10070 10060 10050 10040 10030 10019 10007 9995 9983 9974 9964 9955 9948 9942 9938 9934 9932 9929 9929
10348 10342 10335 10327 10319 10309 10299 10288 10275 10260 10245 10232 10216 10199 10183 10167 10153 10139 10126 10113 10101 10090 10079 10070 10060 10051 10042 10032 10020 10009 9998 9986 9977 9967 9959 9950 9944 9938 9935 9932 9930 9929 9928
10336 10329 10321 10312 10303 10293 10281 10267 10252 10237 10224 10208 10192 10175 10160 10147 10134 10122 10110 10099 10089 10079 10070 10062 10052 10045 10035 10024 10014 10003 9991 9981 9973 9963 9955 9948 9942 9938 9934 9933 9932 9930 9931
10324 10315 10307 10297 10287 10274 10260 10245 10230 10216 10201 10186 10169 10154 10142 10129 10117 10107 10097 10088 10079 10070 10063 10054 10046 10039 10029 10019 10009 9999 9989 9979 9971 9962 9955 9948 9943 9940 9938 9936 9935 9935 9936
10310 10301 10292 10281 10268 10253 10237 10222 10207 10193 10180 10164 10148 10136 10124 10113 10103 10093 10085 10077 10069 10063 10056 10049 10042 10033 10025 10015 10006 9997 9988 9979 9971 9964 9957 9952 9948 9945 9943 9941 9941 9942 9943
10295 10285 10274 10261 10246 10230 10214 10200 10187 10174 10160 10145 10132 10120 10109 10100 10092 10084 10075 10069 10063 10057 10051 10044 10037 10029 10021 10012 10004 9995 9987 9980 9973 9966 9961 9957 9954 9951 9949 9949 9949 9950 9951